COSMOS 1275 DEB, 12652

Orbit data source: Space-Track

COSMOS 1275 DEB, 12652 is space debris in LEO originally from a launch on Thu, 04 Jun 1981 UTC launched from the Plesetsk Missile And Space Complex (PKMTR). Debris objects in space refer to the collection of defunct objects orbiting the Earth. Examples of debris include non-operational satellites, rocket bodies, and fragments generated from explosions, collisions, or faulty payload assembly.

Loading next visibility...
Identifier
12652, 1981-053G
Orbit
LEO
Country
Flag of CISCIS
Related business
Manufacturer
Unknown
Mission
Spacecraft
Bus & Motor
Unknown
Mass
Unknown
Launch date (UTC)
1981-06-04 (44 years ago)
Launch vehicle
Unknown
Launch site
Plesetsk Missile And Space Complex (PKMTR)
Object type
Payload
Rocket body
Debris
Shape & HBR
Unknown shape, 0.1 m
Radar Cross Section
Small (<0.1 m²)

Expand to show TLE details & history
Last TLE update: 7 hours ago

TLE from 7 hours ago
0 COSMOS 1275 DEB
1 12652U 81053G   25291.17187527  .00002010  00000-0  12906-2 0  9993
2 12652  82.9411 184.4496 0053274 324.4303 188.1218 14.02096658161951
Epoch: 2025-10-18T04:07Z
TLE epoch observation values (Epoch: 2025-10-18T04:07:30.023Z)
Latitude
27.34605°
Longitude
-87.98466°
Altitude
928.239 km
Speed
7.371 km/s
True Right ascension
00h 03m 11s
True Declination
27° 12' 33"
Sunlit
Object was in full shadow at epoch
Visualization orbit readout
Latitude
Unknown
Longitude
Unknown
Altitude
Unknown
Speed
Unknown
Apparent Right ascension
Unknown
Apparent Declination
Unknown
Sunlit
N/A
Visualization observer readout
Local Sidereal Time
05:51:00
Azimuth
Unknown
Elevation
Unknown
Doppler factor
Unknown
Orbital elements
Apogee altitude
922.342 km
Perigee altitude
844.969 km
Semi-major axis
7,261.792 km
Eccentricity
0.00533
Inclination
82.9411°
RAAN
184.4496°
Arg. of periapsis
324.4303°
True anomaly
188.03612°
Mean anomaly
188.1218°
Eccentric anomaly
188.0789°
Mean motion
3.50734 °/min
Orbital period
102.64 mins
BSTAR
0.0012906
Loading maneuver chart data...
Computing Atmospheric mass density...

Documentation

Showing up to 5 results
|